NOAA 15 1 25338U 98030A 25199.86694116 .00000168 00000-0 86848-4 0 9991 2 25338 98.5338 224.0498 0009164 240.8641 119.1623 14.26998233414002 METEOSAT 8 (MSG 1) 1 27509U 02040B 25199.20763932 -.00000072 00000-0 00000-0 0 9997 2 27509 10.5942 43.8385 0015038 69.9129 297.0143 0.97902842 83671 KALPANA 1 (METSAT 1) 1 27525U 02043A 25199.31641880 -.00000217 00000-0 00000-0 0 9998 2 27525 12.5020 34.9679 0007673 131.4176 54.2629 0.98340151 83209 NOAA 18 1 28654U 05018A 25199.83424999 .00000049 00000-0 49039-4 0 9995 2 28654 98.8417 278.8684 0014529 22.6163 337.5647 14.13619612 39290 METEOSAT 9 (MSG 2) 1 28912U 05049B 25199.20893933 .00000125 00000-0 00000-0 0 9991 2 28912 8.5960 57.3636 0000981 355.9522 3.8351 1.00272067 3650 HIMAWARI 7 1 28937U 06004A 25199.54495815 -.00000172 00000-0 00000-0 0 9997 2 28937 4.9204 77.0947 0007483 140.3202 215.7437 0.99076637 70911 FORMOSAT 3A 1 29047U 06011A 25199.49649544 .00000300 00000-0 12807-3 0 9995 2 29047 71.9770 275.2335 0047000 95.6690 264.9810 14.30992665 6661 FORMOSAT 3B 1 29048U 06011B 25199.41797159 .00000338 00000-0 14281-3 0 9993 2 29048 71.9645 184.2003 0040803 56.1950 304.3061 14.30977525 9027 FORMOSAT 3C 1 29049U 06011C 25199.47251035 .00000336 00000-0 14230-3 0 9990 2 29049 72.0194 6.2992 0032865 66.4060 294.0523 14.31001987 4927 FORMOSAT 3D 1 29050U 06011D 25199.72054884 .00001288 00000-0 24292-3 0 9999 2 29050 72.0151 314.0726 0044366 180.7204 179.3896 14.65600936 27655 FORMOSAT 3E 1 29051U 06011E 25199.46232187 .00000200 00000-0 89273-4 0 9999 2 29051 72.0032 264.6048 0067844 309.1704 50.3418 14.31126462 7510 FORMOSAT 3F 1 29052U 06011F 25199.47995311 .00000315 00000-0 13366-3 0 9992 2 29052 72.0341 344.3771 0038640 19.8074 340.4553 14.31208722 5038 GOES 13 1 29155U 06018A 25199.27801631 -.00000015 00000-0 00000-0 0 9998 2 29155 3.6606 80.5364 0059507 267.0889 82.4288 0.98786224 39940 METOP-A 1 29499U 06044A 25199.86798650 .00001430 00000-0 17473-3 0 9995 2 29499 98.3315 291.7311 0179734 51.2346 17.4804 14.74176089979163 FENGYUN 2D 1 29640U 06053A 25199.13959362 -.00000015 00000-0 00000-0 0 9996 2 29640 10.3321 43.5501 0009331 35.4925 323.6852 0.98191109 67713 FENGYUN 3A 1 32958U 08026A 25199.43602734 .00000071 00000-0 54056-4 0 9990 2 32958 98.6487 142.2576 0009066 17.1758 342.9723 14.19455025888053 FENGYUN 2E 1 33463U 08066A 25199.31235742 .00000030 00000-0 00000-0 0 9995 2 33463 8.4983 57.2890 0001232 96.2791 106.9150 0.99120158 60694 NOAA 19 1 33591U 09005A 25199.84704326 .00000134 00000-0 95492-4 0 9996 2 33591 98.9955 264.7686 0012767 251.1658 108.8130 14.13390830847651 GOES 14 1 35491U 09033A 25199.53533810 -.00000064 00000-0 00000-0 0 9992 2 35491 0.8143 87.5946 0002965 78.7289 214.9505 1.00273851 3244 METEOR-M 1 35865U 09049A 25199.60040131 .00000071 00000-0 50782-4 0 9994 2 35865 98.6877 160.4325 0002169 165.0623 195.0620 14.23031653821941 GOES 15 1 36411U 10008A 25199.59556645 .00000044 00000-0 00000-0 0 9993 2 36411 0.4159 85.3004 0003643 114.5410 12.5106 1.00272935 56294 COMS 1 1 36744U 10032A 25199.71678764 -.00000342 00000-0 00000+0 0 9991 2 36744 3.9621 79.5404 0000763 58.4364 184.9241 1.00268821 55313 FENGYUN 3B 1 37214U 10059A 25199.87640839 .00000046 00000-0 47589-4 0 9990 2 37214 99.0108 238.6340 0022949 52.8087 122.0296 14.14738885760338 NPP 1 37849U 11061A 25199.87224288 .00000064 00000-0 51113-4 0 9992 2 37849 98.7580 138.7084 0001384 151.7820 208.3431 14.19546539711143 FENGYUN 2F 1 38049U 12002A 25199.31613036 .00000076 00000-0 00000-0 0 9991 2 38049 6.7329 69.8767 0002125 149.9284 56.7680 0.99135792 49496 METEOSAT 10 (MSG 3) 1 38552U 12035B 25199.34273715 .00000001 00000-0 00000-0 0 9993 2 38552 3.8778 62.0388 0000719 0.5270 357.9307 1.00263112 47502 METOP-B 1 38771U 12049A 25199.88581862 .00000069 00000-0 51108-4 0 9998 2 38771 98.5748 252.9917 0000856 140.4438 219.6802 14.21465054665903 FENGYUN 3C 1 39260U 13052A 25199.87530630 .00000056 00000-0 49610-4 0 9994 2 39260 98.4564 184.8583 0013466 262.8471 97.1172 14.15635968611479 METEOR M2 1 40069U 14037A 25199.90241622 .00000091 00000-0 60971-4 0 9993 2 40069 98.4699 183.2547 0004586 290.4035 69.6650 14.21309580571976 HIMAWARI 8 1 40267U 14060A 25199.51323800 -.00000270 00000-0 00000-0 0 9998 2 40267 0.0181 75.5347 0000623 74.7623 111.6735 1.00268176 39403 FENGYUN 2G 1 40367U 14090A 25199.90432038 -.00000300 00000-0 00000+0 0 9992 2 40367 4.7922 76.8917 0003838 162.4299 122.4727 1.00281739 38691 METEOSAT 11 (MSG 4) 1 40732U 15034A 25199.34447049 .00000066 00000-0 00000-0 0 9992 2 40732 2.3646 72.3766 0000818 112.1243 245.1173 1.00272346 3866 ELEKTRO-L 2 1 41105U 15074A 25199.33979046 -.00000114 00000-0 00000-0 0 9992 2 41105 5.8488 74.6534 0001508 168.8639 160.7462 1.00272583 35158 HIMAWARI 9 1 41836U 16064A 25199.51332466 -.00000269 00000-0 00000-0 0 9993 2 41836 0.0362 249.1388 0001044 266.2274 106.7353 1.00272389 31863 GOES 16 1 41866U 16071A 25199.53603144 -.00000084 00000-0 00000-0 0 9995 2 41866 0.0357 198.5998 0001259 333.9750 212.2560 1.00271025 31750 FENGYUN 4A 1 41882U 16077A 25199.58934971 -.00000352 00000-0 00000-0 0 9997 2 41882 1.4692 83.9765 0006796 168.7358 19.8054 1.00273282 31580 CYGFM05 1 41884U 16078A 25199.65169064 .00010437 00000-0 24262-3 0 9994 2 41884 34.9611 282.8373 0009818 248.6765 111.2907 15.41453623477113 CYGFM04 1 41885U 16078B 25199.56320333 .00011395 00000-0 24760-3 0 9990 2 41885 34.9356 261.7096 0009105 269.0988 90.8689 15.43450018477140 CYGFM02 1 41886U 16078C 25199.61149486 .00012008 00000-0 25307-3 0 9995 2 41886 34.9444 261.3711 0010768 264.6462 95.3030 15.44325028477338 CYGFM01 1 41887U 16078D 25199.62857854 .00010803 00000-0 24777-3 0 9993 2 41887 34.9444 286.2820 0009486 236.9308 123.0501 15.41850309477066 CYGFM08 1 41888U 16078E 25199.59038966 .00011304 00000-0 25081-3 0 9991 2 41888 34.9467 271.0024 0011342 259.3379 100.6063 15.42809234477180 CYGFM07 1 41890U 16078G 25199.58414167 .00011055 00000-0 24069-3 0 9992 2 41890 34.9483 260.8558 0009358 275.2659 84.6993 15.43395288477162 CYGFM03 1 41891U 16078H 25199.85449251 .00011577 00000-0 25413-3 0 9998 2 41891 34.9438 260.7988 0008550 262.8172 97.1576 15.43153917477330